TIANMU-1 22

Last updated on Sat Jun 14 2025 00:02:21 GMT+0000 (Coordinated Universal Time)

1 58663U 23208D 25164.53395524 .00010391 00000+0 42941-3 0 9993 2 58663 97.4284 276.7780 0004183 182.5107 177.6110 15.24174580 81055
UTC large
Height (km)
Speed (km/s)
/
Latitude / Longitude
Inclination (degrees)
Orbital Period (minutes)
Azimuth
Elevation
Range (km)
Doppler Factor

Next 0 passes for location: London (51.5072 / 0.1276)

Sorry there are no passes over London.